GPS BIIF-6 (PRN 06)

Last updated on July 5, 2021, 2:29 p.m. UTC

1 39741U 14026A   21185.62093328 -.00000086  00000-0  00000-0 0  9992
2 39741  56.3933  41.8027 0022969 301.1155  58.7178  2.00550376 52260
UTC
Height (km)
Latitude
Longitude
Inclination
Orbital Period
UTC large
Height (km)
Speed (km/s)
/
Latitude / Longitude
Inclination (degrees)
Orbital Period (minutes)
Azimuth
Elevation
Range (km)
Doppler Factor
iOS Compass Heading
iOS Angle